TimeCDT,TemperatureF,Dew PointF,Humidity,Sea Level PressureIn,VisibilityMPH,Wind Direction,Wind SpeedMPH,Gust SpeedMPH,PrecipitationIn,Events,Conditions,WindDirDegrees,DateUTC
12:56 AM,61.0,59.0,93,30.02,-9999.0,NNW,6.9,-,N/A,,Unknown,330,2013-07-10 05:56:00
1:56 AM,60.1,57.0,90,30.02,-9999.0,NNW,6.9,-,N/A,,Unknown,330,2013-07-10 06:56:00
2:56 AM,59.0,55.9,90,30.04,-9999.0,NW,6.9,-,N/A,,Unknown,320,2013-07-10 07:56:00
3:56 AM,57.9,55.9,93,30.06,-9999.0,NW,6.9,-,N/A,,Unknown,310,2013-07-10 08:56:00
4:56 AM,55.9,55.0,97,30.05,-9999.0,NNW,4.6,-,N/A,,Unknown,330,2013-07-10 09:56:00
5:56 AM,55.9,54.0,93,30.07,-9999.0,WNW,3.5,-,N/A,,Unknown,290,2013-07-10 10:56:00
6:56 AM,57.9,55.0,90,30.08,-9999.0,NW,4.6,-,N/A,,Unknown,320,2013-07-10 11:56:00
7:56 AM,63.0,55.9,78,30.08,-9999.0,NW,3.5,-,N/A,,Unknown,310,2013-07-10 12:56:00
8:56 AM,66.9,55.9,68,30.09,-9999.0,NNW,6.9,-,N/A,,Unknown,330,2013-07-10 13:56:00
9:56 AM,70.0,57.0,63,30.09,-9999.0,North,6.9,-,N/A,,Unknown,350,2013-07-10 14:56:00
10:56 AM,72.0,57.0,59,30.09,-9999.0,Variable,4.6,-,N/A,,Unknown,0,2013-07-10 15:56:00
11:56 AM,73.9,55.0,52,30.08,-9999.0,Calm,Calm,-,N/A,,Unknown,0,2013-07-10 16:56:00
12:56 PM,75.0,57.0,53,30.07,-9999.0,NNE,4.6,-,N/A,,Unknown,20,2013-07-10 17:56:00
1:56 PM,75.0,57.0,53,30.05,-9999.0,North,3.5,-,N/A,,Unknown,10,2013-07-10 18:56:00
2:56 PM,77.0,57.0,50,30.04,-9999.0,Calm,Calm,-,N/A,,Unknown,0,2013-07-10 19:56:00
3:56 PM,77.0,57.9,52,30.02,-9999.0,Calm,Calm,-,N/A,,Unknown,0,2013-07-10 20:56:00
4:56 PM,78.1,54.0,43,30.00,-9999.0,WSW,3.5,-,N/A,,Unknown,240,2013-07-10 21:56:00
5:56 PM,79.0,55.0,44,29.99,-9999.0,North,4.6,-,N/A,,Unknown,360,2013-07-10 22:56:00
6:56 PM,79.0,55.9,45,29.98,-9999.0,WNW,3.5,-,N/A,,Unknown,300,2013-07-10 23:56:00
7:56 PM,77.0,55.9,48,29.98,-9999.0,Calm,Calm,-,N/A,,Unknown,0,2013-07-11 00:56:00
8:56 PM,70.0,63.0,78,29.99,-9999.0,Calm,Calm,-,N/A,,Unknown,0,2013-07-11 01:56:00
9:56 PM,68.0,62.1,81,30.00,-9999.0,Calm,Calm,-,N/A,,Unknown,0,2013-07-11 02:56:00
10:56 PM,64.0,61.0,90,30.01,-9999.0,SW,4.6,-,N/A,,Unknown,220,2013-07-11 03:56:00
11:56 PM,62.1,59.0,90,30.01,-9999.0,SW,4.6,-,N/A,,Unknown,230,2013-07-11 04:56:00